Time,TemperatureF,DewpointF,PressureIn,WindDirection,WindDirectionDegrees,WindSpeedMPH,WindSpeedGustMPH,Humidity,HourlyPrecipIn,Conditions,Clouds,dailyrainin,SoftwareType,DateUTC
2013-05-16 00:01:00,54.7,50.9,30.04,East,90,0.4,1.1,87,0.00,,,0.00,WUHU216HW,2013-05-16 07:01:00,
2013-05-16 00:06:00,54.7,50.9,30.04,ENE,68,1.6,1.6,87,0.00,,,0.00,WUHU216HW,2013-05-16 07:06:00,
2013-05-16 00:11:00,54.7,50.9,30.04,ESE,113,0.2,1.8,87,0.00,,,0.00,WUHU216HW,2013-05-16 07:11:00,
2013-05-16 00:16:00,54.7,50.9,30.04,South,180,0.0,1.8,87,0.00,,,0.00,WUHU216HW,2013-05-16 07:16:00,
2013-05-16 00:21:00,54.7,50.6,30.04,SE,135,0.4,1.6,86,0.00,,,0.00,WUHU216HW,2013-05-16 07:21:00,
2013-05-16 00:26:00,54.7,50.6,30.04,SSE,158,1.1,1.1,86,0.00,,,0.00,WUHU216HW,2013-05-16 07:26:00,
2013-05-16 00:31:00,54.7,50.6,30.04,East,90,0.4,1.1,86,0.00,,,0.00,WUHU216HW,2013-05-16 07:31:00,
2013-05-16 00:36:00,54.7,50.6,30.04,SE,135,0.9,1.1,86,0.00,,,0.00,WUHU216HW,2013-05-16 07:36:00,
2013-05-16 00:41:00,54.7,50.6,30.04,South,180,0.4,2.5,86,0.00,,,0.00,WUHU216HW,2013-05-16 07:41:00,
2013-05-16 00:46:00,54.7,50.6,30.04,South,180,2.7,2.7,86,0.00,,,0.00,WUHU216HW,2013-05-16 07:46:00,
2013-05-16 00:51:00,54.7,50.6,30.04,SW,225,0.9,2.7,86,0.00,,,0.00,WUHU216HW,2013-05-16 07:51:00,
2013-05-16 00:56:00,54.7,50.6,30.04,East,90,0.4,1.8,86,0.00,,,0.00,WUHU216HW,2013-05-16 07:56:00,
2013-05-16 01:01:00,54.7,50.6,30.03,SSE,158,0.4,0.4,86,0.00,,,0.00,WUHU216HW,2013-05-16 08:01:00,
2013-05-16 01:06:00,54.7,50.6,30.03,South,180,0.2,0.9,86,0.00,,,0.00,WUHU216HW,2013-05-16 08:06:00,
2013-05-16 01:11:00,54.7,50.9,30.03,SSE,158,0.2,1.3,87,0.00,,,0.00,WUHU216HW,2013-05-16 08:11:00,
2013-05-16 01:16:00,54.7,50.9,30.03,SSE,158,0.2,1.3,87,0.00,,,0.00,WUHU216HW,2013-05-16 08:16:00,
2013-05-16 01:21:00,54.7,50.6,30.03,SE,135,0.2,1.6,86,0.00,,,0.00,WUHU216HW,2013-05-16 08:21:00,
2013-05-16 01:26:00,54.7,50.6,30.03,SSW,203,0.0,1.6,86,0.00,,,0.00,WUHU216HW,2013-05-16 08:26:00,
2013-05-16 01:31:00,54.7,50.6,30.03,SSW,203,0.4,0.9,86,0.00,,,0.00,WUHU216HW,2013-05-16 08:31:00,
2013-05-16 01:36:00,54.9,50.8,30.03,SSE,158,0.0,0.9,86,0.00,,,0.00,WUHU216HW,2013-05-16 08:36:00,
2013-05-16 01:41:00,54.9,51.0,30.03,SSW,203,0.9,0.9,87,0.00,,,0.00,WUHU216HW,2013-05-16 08:41:00,
2013-05-16 01:46:00,54.9,50.8,30.03,SSW,203,0.0,0.9,86,0.00,,,0.00,WUHU216HW,2013-05-16 08:46:00,
2013-05-16 01:51:00,54.9,50.8,30.03,South,180,0.2,0.4,86,0.00,,,0.00,WUHU216HW,2013-05-16 08:51:00,
2013-05-16 01:56:00,54.9,50.8,30.03,South,180,0.4,1.1,86,0.01,,,0.01,WUHU216HW,2013-05-16 08:56:00,
2013-05-16 02:01:00,54.9,51.0,30.03,South,180,0.2,1.1,87,0.01,,,0.01,WUHU216HW,2013-05-16 09:01:00,
2013-05-16 02:06:00,54.9,51.0,30.02,South,180,0.0,1.1,87,0.01,,,0.01,WUHU216HW,2013-05-16 09:06:00,
2013-05-16 02:11:00,54.9,51.4,30.02,SE,135,0.7,0.7,88,0.01,,,0.01,WUHU216HW,2013-05-16 09:11:00,
2013-05-16 02:16:00,54.7,50.9,30.02,SSE,158,0.0,1.3,87,0.01,,,0.01,WUHU216HW,2013-05-16 09:16:00,
2013-05-16 02:21:00,54.7,50.9,30.02,SE,135,0.0,1.3,87,0.01,,,0.01,WUHU216HW,2013-05-16 09:21:00,
2013-05-16 02:26:00,54.7,51.2,30.02,SE,135,0.4,1.1,88,0.01,,,0.01,WUHU216HW,2013-05-16 09:26:00,
2013-05-16 02:31:00,54.7,51.2,30.02,SSE,158,0.0,0.9,88,0.01,,,0.01,WUHU216HW,2013-05-16 09:31:00,
2013-05-16 02:36:00,54.7,51.2,30.01,SSE,158,0.2,0.9,88,0.01,,,0.01,WUHU216HW,2013-05-16 09:36:00,
2013-05-16 02:41:00,54.7,51.2,30.01,SSE,158,0.0,0.7,88,0.01,,,0.01,WUHU216HW,2013-05-16 09:41:00,
2013-05-16 02:46:00,54.7,51.5,30.01,SE,135,0.2,1.1,89,0.01,,,0.01,WUHU216HW,2013-05-16 09:46:00,
2013-05-16 02:51:00,54.7,51.2,30.01,East,90,0.4,1.1,88,0.01,,,0.01,WUHU216HW,2013-05-16 09:51:00,
2013-05-16 02:55:00,54.7,51.2,30.01,East,90,0.2,0.7,88,0.00,,,0.01,WUHU216HW,2013-05-16 09:55:00,
2013-05-16 03:00:00,54.5,51.3,30.01,NE,45,0.7,0.7,89,0.00,,,0.01,WUHU216HW,2013-05-16 10:00:00,
2013-05-16 03:05:00,54.5,51.3,30.01,SE,135,0.4,0.7,89,0.00,,,0.01,WUHU216HW,2013-05-16 10:05:00,
2013-05-16 03:10:00,54.4,51.2,30.01,SE,135,2.0,2.0,89,0.00,,,0.01,WUHU216HW,2013-05-16 10:10:00,
2013-05-16 03:15:00,54.4,51.2,30.01,ESE,113,0.9,2.0,89,0.00,,,0.01,WUHU216HW,2013-05-16 10:15:00,
2013-05-16 03:20:00,54.4,51.2,30.01,East,90,0.2,2.2,89,0.00,,,0.01,WUHU216HW,2013-05-16 10:20:00,